Home > Weather > Wels > Past weeks

Flag for Austria Weather for the Past 2 Weeks in Wels, Upper Austria, Austria

Now
30 °F

Ice fog.


Feels Like: N/A
Forecast: 30 / 53 °F
Wind: N/A

Location: Linz / Hoersching-Flughafen

Current Time: Feb 6, 2016 at 11:09:57 AM

Latest Report: Feb 6, 2016 at 10:00 AM


Visibility: 0 mi

Pressure: 30.29 "Hg

Humidity: 100%

Dew point: 30 °F

Location of WelsLocation

Historic Weather in Wels — Graph

°F

Wels Temperature Yesterday

Maximum temperature yesterday: 40 °F (at 3:00 PM)
Minimum temperature yesterday: 35 °F (at 11:00 PM)
Average temperature yesterday: 38 °F

High & Low Weather Summary for the Past Weeks

 TemperatureHumidityPressure
High56 °F (Feb 1, 4:00 PM)100% (Jan 25, 6:00 PM)30.65 "Hg (Jan 25, 6:00 PM)
Low9 °F (Jan 23, 3:00 AM)56% (Jan 28, 3:00 PM)29.92 "Hg (Jan 31, 3:00 AM)
Average37 °F88%30.32 "Hg
* Reported Jan 22 10:00 AM — Feb 6 10:00 AM, Wels, Weather by CustomWeather, © 2016

Note: Actual official high and low records may vary slightly from our data, if they occured in-between our weather recording intervals... More about our weather records

Advertising

Wels Weather History for the Previous 24 Hours

 ConditionsComfort  
Time TempWeatherWind HumidityBarometerVisibility
10:00 AM
Sat, Feb 6
30 °FIce fog.N/A100%30.29 "Hg0 mi
9:00 AM29 °FIce fog.N/A100%30.30 "Hg0 mi
8:00 AM28 °FIce fog.N/A100%30.30 "Hg0 mi
7:00 AM28 °FIce fog.N/A100%30.29 "Hg0 mi
6:00 AM29 °FPassing clouds.N/A98%30.29 "Hg0 mi
5:00 AM31 °FLight rain. Passing clouds.N/A99%30.31 "Hg0 mi
4:00 AMN/APassing clouds.6 mphN/AN/A3 mi
3:00 AM33 °FChilly.N/A99%30.32 "Hg1 mi
12:00 AM35 °FPassing clouds.N/A93%30.37 "Hg5 mi
11:00 PM
Fri, Feb 5
35 °FPassing clouds.N/A93%30.38 "Hg6 mi
10:00 PM36 °FOvercast.N/A92%30.39 "Hg6 mi
9:00 PM38 °FOvercast.N/A85%30.39 "Hg9 mi
8:00 PM39 °FOvercast.N/A84%30.40 "Hg8 mi
7:00 PM39 °FOvercast.N/A82%30.40 "Hg11 mi
6:00 PM38 °FOvercast.N/A85%30.39 "Hg16 mi
5:00 PM38 °FOvercast.3 mph82%30.38 "Hg19 mi
4:00 PMN/APassing clouds.10 mphN/AN/A14 mi
3:00 PM40 °FOvercast.6 mph71%30.39 "Hg22 mi
2:00 PM40 °FOvercast.6 mph67%30.40 "Hg22 mi
1:00 PM40 °FOvercast.5 mph69%30.42 "Hg31 mi
12:00 PM40 °FOvercast.6 mph67%30.43 "Hg25 mi
11:00 AM39 °FScattered clouds.6 mph76%30.44 "Hg17 mi
Weather by CustomWeather, © 2016

See weather overviewHow to use our weather pages